Theta_e
297 296 297 297 296 292 291 291 291 290 292 292 289 293 296 291 284 285 292 295 293 294 296 297 297 298 298 298 298 299 300 300 301 301 301 301 301 301 301 301 300 300 300 300 300 300 300 301 301 302 302 302 302 302 303 304 304 304 303 303 302 302 302 302 302 303 303 304 304 304 304 304 304 303 303 303 304 304 304 304 304 303 304 303 302 301 300
296 296 296 296 296 296 293 292 291 294 295 296 296 296 296 294 292 294 294 295 293 296 296 297 298 300 299 299 300 300 299 299 300 300 300 299 299 300 300 300 300 300 300 300 300 300 300 300 300 301 300 300 301 301 302 303 303 303 303 302 302 302 302 302 302 303 303 303 303 303 303 303 303 303 303 303 302 303 303 303 303 303 303 303 302 301 299
292 296 297 298 296 295 293 295 298 298 298 297 297 296 294 295 294 294 294 292 291 296 299 298 299 300 300 299 298 298 299 300 300 299 298 299 299 300 300 300 299 300 300 300 300 299 299 299 299 300 300 300 301 301 301 301 302 302 302 301 301 301 301 302 302 302 302 302 302 302 302 302 302 303 303 302 302 302 302 302 301 302 302 302 301 300 300
286 295 296 296 295 293 292 292 293 295 295 293 293 291 295 293 291 293 292 289 288 294 298 298 298 298 298 297 297 298 298 299 299 298 297 298 298 298 299 299 299 299 299 299 299 298 298 299 299 299 299 300 300 300 300 301 301 302 301 301 300 300 301 301 301 301 301 301 300 301 301 301 301 302 302 302 301 301 301 300 300 301 301 301 301 300 299
285 292 294 295 294 290 285 287 291 294 295 294 294 295 296 295 295 290 287 289 293 295 297 295 296 297 297 297 297 297 298 299 298 298 297 297 297 297 298 298 298 298 298 298 298 298 299 298 299 300 300 300 300 300 300 300 301 300 300 300 299 300 300 300 300 300 300 300 299 300 300 300 300 300 300 300 300 300 300 301 299 299 299 300 300 299 299
283 290 291 291 286 281 284 294 296 297 294 293 290 288 291 293 294 291 294 294 295 295 295 295 294 295 296 297 298 300 299 298 297 297 297 296 296 297 297 297 297 297 297 297 297 298 299 300 300 300 301 300 300 300 300 300 299 299 299 299 299 299 299 299 299 299 299 299 299 299 299 299 299 299 299 298 299 300 300 299 298 298 298 298 299 298 298
283 287 288 285 281 282 292 297 299 298 295 293 291 291 292 292 293 293 292 293 294 295 296 296 296 296 297 298 297 298 299 298 297 296 296 296 296 296 296 296 296 296 296 297 298 298 299 299 299 299 300 299 299 299 299 299 298 298 298 298 298 298 298 299 299 299 299 298 298 298 298 298 298 298 298 298 298 299 298 298 297 297 297 297 298 298 297
285 283 283 280 281 290 296 296 297 298 296 294 292 289 291 292 293 293 292 293 294 295 295 296 296 295 296 297 297 298 299 299 298 296 296 296 296 296 297 296 296 297 297 297 297 297 300 299 299 298 298 298 298 298 299 298 297 297 297 297 297 297 297 298 298 298 298 297 297 297 297 297 297 297 296 297 297 298 298 297 297 297 297 297 297 297 297
282 284 283 282 288 290 293 292 293 293 291 292 290 284 287 292 292 293 292 293 294 294 294 295 295 295 295 293 294 297 298 298 299 298 298 298 298 298 298 298 297 298 298 298 298 298 297 297 298 298 298 298 298 297 297 297 296 296 296 296 296 296 297 297 298 298 298 297 296 296 296 296 296 296 295 295 296 297 296 296 296 296 295 296 296 295 295
286 284 282 283 283 282 286 294 298 299 298 296 295 291 287 294 294 295 294 292 293 293 294 293 294 295 291 288 290 295 297 298 298 299 299 299 298 298 297 298 297 297 298 298 299 298 297 297 297 297 297 297 296 296 295 295 295 295 295 295 295 296 296 297 297 297 297 297 296 295 295 295 295 295 295 294 295 296 295 294 295 295 295 295 295 295 295
285 284 282 282 281 283 290 293 298 299 298 298 297 290 284 292 294 295 294 292 293 293 292 292 294 292 287 286 289 295 297 297 298 297 298 298 298 298 297 296 296 297 297 297 298 297 296 296 296 296 297 296 296 295 295 295 295 294 294 294 295 295 296 297 297 297 297 296 296 295 295 295 295 294 294 295 294 294 294 294 295 294 296 294 294 294 294
283 283 282 282 284 282 290 296 297 298 299 300 293 283 283 291 294 294 294 293 293 293 293 293 292 290 285 286 290 296 297 298 298 298 297 297 297 297 297 297 296 296 298 297 296 295 295 295 296 296 296 296 296 295 295 294 294 294 294 295 295 295 295 296 296 297 296 297 296 295 294 294 295 295 295 294 294 294 293 294 294 293 294 294 293 293 293
285 285 282 285 286 291 296 297 299 299 301 294 283 281 283 293 293 294 294 293 294 294 293 293 290 292 293 293 295 297 297 297 297 298 298 297 297 297 297 297 297 296 296 296 296 295 295 296 296 296 296 295 294 295 294 293 293 294 295 295 295 295 295 295 296 297 296 296 296 296 295 295 295 295 295 294 294 294 293 294 292 292 293 293 293 293 293
284 284 284 284 287 292 299 299 300 300 294 281 283 288 295 294 293 294 295 294 294 294 294 293 292 293 295 296 296 296 296 296 297 298 297 297 296 296 297 297 296 296 296 295 295 295 295 296 296 296 295 294 294 293 293 293 293 294 295 294 294 294 294 295 296 296 296 296 297 299 297 296 294 294 295 295 295 293 293 293 291 292 291 293 292 292 292
284 284 282 283 281 290 300 299 297 298 286 285 291 293 295 296 294 294 294 294 294 295 294 294 294 294 295 295 295 296 296 296 296 297 296 295 295 295 295 296 297 297 295 295 295 294 296 296 296 295 294 294 293 293 293 293 295 295 295 295 295 295 295 295 295 294 296 296 297 299 297 296 294 294 294 294 294 294 293 292 292 291 291 291 292 292 292
282 282 280 282 288 294 300 297 286 292 292 294 295 295 292 295 295 294 294 294 295 296 294 294 294 294 294 295 295 296 296 296 297 296 295 294 294 295 295 296 296 296 295 296 295 295 296 296 296 295 295 294 294 293 293 294 294 295 295 294 294 294 294 294 294 295 295 297 296 295 296 295 295 294 294 294 293 293 292 292 291 291 291 292 291 291 291
285 284 285 291 295 296 297 298 296 295 296 297 297 296 295 294 294 296 294 295 296 296 295 294 294 293 294 295 296 295 296 296 296 295 294 294 294 294 294 295 296 296 296 295 295 295 295 295 295 295 294 294 293 292 294 295 294 294 295 294 294 293 293 294 294 294 293 294 296 295 294 294 294 294 293 293 292 292 292 292 291 291 291 292 290 290 291
295 296 295 297 297 297 297 298 298 297 297 297 297 296 294 295 296 296 295 296 295 295 296 294 294 294 294 295 295 296 296 296 296 296 295 295 294 294 295 294 295 296 295 295 294 294 295 295 296 295 295 294 293 294 295 295 294 295 295 294 293 293 293 293 293 294 293 293 295 295 295 295 295 294 293 292 292 291 291 291 291 291 291 291 291 290 290
290 285 294 295 295 296 297 297 299 299 298 297 298 296 296 297 298 297 297 296 296 295 295 295 294 294 295 295 295 296 296 295 295 295 294 293 293 293 293 294 295 295 294 294 294 294 293 294 295 296 296 295 295 295 295 295 295 295 295 294 293 293 292 292 293 293 292 291 293 294 294 294 295 295 293 292 292 291 290 289 290 290 291 290 290 290 289
287 288 294 296 298 297 298 297 296 296 298 298 299 298 299 298 298 297 296 296 295 296 295 296 295 295 295 295 295 295 295 294 294 294 294 293 293 294 294 294 295 294 294 293 293 293 294 294 295 296 296 295 296 296 296 296 295 295 294 294 293 291 292 292 293 293 292 291 292 293 294 293 292 293 292 293 291 289 288 289 291 290 290 289 289 289 290
292 295 296 297 297 297 297 297 296 297 297 298 298 298 298 297 296 296 296 297 296 296 296 296 296 295 295 296 296 295 295 294 294 294 293 293 293 293 293 294 294 293 293 293 293 293 294 295 295 295 295 295 296 295 295 296 295 294 293 292 293 293 292 292 292 293 293 292 292 292 292 292 290 289 290 290 290 290 288 287 287 289 290 290 288 288 289
287 288 292 295 289 288 294 296 297 297 298 298 297 297 297 296 295 295 295 295 297 297 297 297 296 295 296 296 296 294 294 294 293 293 293 292 292 293 294 295 294 294 294 293 293 293 293 294 295 295 295 296 296 296 295 295 295 294 293 293 292 292 292 292 293 292 293 292 293 292 291 291 290 290 287 288 288 290 289 288 288 288 288 287 288 287 288
287 293 296 296 295 295 296 297 298 298 299 298 296 296 296 296 296 296 295 294 295 296 297 298 297 296 296 295 294 293 292 292 292 293 292 292 293 293 294 293 293 293 293 294 293 292 293 294 294 294 294 295 296 296 296 296 295 294 294 293 291 291 292 291 291 292 292 291 293 292 291 291 291 289 290 288 289 288 288 289 289 289 288 288 288 288 288
295 297 296 297 296 294 296 298 298 298 299 297 296 296 296 296 296 296 296 296 296 296 297 297 298 297 296 294 293 291 291 291 291 291 292 293 293 293 294 293 293 292 292 292 292 292 292 293 294 294 294 295 295 296 296 295 295 294 293 292 291 291 291 290 291 291 291 291 292 291 290 291 290 291 290 289 290 289 285 284 286 286 286 288 289 289 289
294 298 298 298 297 298 299 299 299 299 299 298 296 295 295 296 297 298 297 297 298 297 297 297 298 295 293 292 292 291 291 291 292 292 292 293 292 293 293 293 292 291 292 292 292 293 293 293 293 293 293 294 295 296 295 295 295 294 293 293 291 289 289 290 290 291 292 291 291 292 292 291 291 291 289 288 288 287 290 287 284 284 286 288 289 289 289
299 299 299 299 299 298 299 299 298 298 298 299 297 297 298 299 299 299 298 298 298 298 298 296 294 293 293 292 292 291 290 291 292 292 292 292 292 292 292 291 292 292 292 292 292 293 292 293 293 292 292 294 295 296 296 295 294 293 293 293 291 288 287 287 288 291 292 292 292 292 292 290 289 289 289 290 288 287 286 286 288 289 289 289 289 289 290
299 300 298 296 295 296 297 296 295 298 299 299 299 298 299 299 299 299 299 299 299 297 295 294 293 293 293 292 291 291 291 291 291 292 292 292 292 292 291 292 292 292 292 292 292 292 292 292 292 292 293 294 295 295 295 296 294 292 294 293 291 289 288 289 289 291 291 290 291 290 291 292 290 289 290 289 289 288 287 287 287 287 289 288 289 291 289
299 299 299 294 293 294 296 298 299 299 299 299 299 299 299 299 299 298 297 295 294 294 294 293 293 292 291 291 291 290 290 290 290 290 291 291 292 292 292 292 293 292 292 291 291 291 292 292 292 291 293 294 294 295 295 294 295 293 293 293 292 290 291 290 291 290 290 290 290 290 290 290 291 289 288 288 288 288 287 287 287 287 285 288 288 293 291
298 299 299 299 298 298 299 299 299 298 298 299 299 299 299 298 297 297 294 293 293 293 292 292 292 292 291 291 291 290 290 290 290 290 291 292 293 293 293 293 293 293 292 292 292 291 292 292 292 292 292 294 294 294 294 294 294 294 293 292 291 290 290 290 290 290 290 291 289 290 288 288 289 289 289 289 289 289 288 287 285 286 286 286 287 289 288
297 298 298 298 299 299 298 297 297 297 298 298 298 298 298 297 295 293 293 292 292 292 291 291 290 290 291 290 290 290 289 290 291 291 292 293 293 293 293 293 293 292 292 292 292 292 292 292 292 292 292 293 294 294 294 293 293 294 294 292 291 289 290 292 291 291 290 290 288 288 287 289 290 289 289 288 288 288 286 285 285 285 286 285 288 285 285
298 298 299 299 299 298 297 296 297 297 297 296 296 296 296 294 292 291 291 291 291 291 291 291 290 289 290 290 290 290 291 291 291 292 292 293 292 292 292 292 291 290 290 291 291 292 292 292 292 292 293 293 293 293 293 292 292 293 291 292 292 289 290 289 288 290 289 288 287 289 290 289 290 288 286 286 287 287 286 286 285 285 285 285 285 285 286
297 298 298 298 297 297 297 297 296 296 296 296 296 294 292 292 291 291 291 291 291 291 290 290 289 290 290 290 291 291 291 291 291 292 292 292 291 289 290 291 291 290 292 292 291 291 292 291 291 293 294 294 294 293 293 292 291 291 290 289 291 291 289 287 287 287 288 287 288 288 287 288 289 289 287 286 286 286 286 285 285 285 284 285 286 287 286
295 295 295 295 296 296 296 296 295 295 295 294 293 293 293 293 293 293 292 292 291 290 290 290 290 290 290 291 291 291 290 290 290 289 288 286 285 287 291 291 292 292 291 292 292 292 292 292 292 294 293 293 293 293 292 291 290 290 290 290 291 290 290 288 289 289 288 286 287 289 288 288 288 289 288 286 285 286 286 286 285 285 285 285 286 286 287
295 294 295 296 296 294 294 294 295 295 294 293 293 293 293 293 293 293 293 292 292 291 290 291 291 291 292 291 290 289 289 288 287 285 284 284 285 286 289 290 292 292 292 293 292 292 294 294 294 294 295 294 294 293 292 291 290 290 290 290 290 290 289 290 289 288 288 287 287 287 289 287 287 288 286 286 286 286 287 286 286 285 285 285 286 286 287
297 297 298 297 297 297 297 296 295 293 292 292 293 293 293 293 293 293 293 292 291 292 292 293 293 292 290 289 289 287 287 286 285 284 283 284 284 285 287 291 292 291 293 293 293 294 294 295 294 292 293 294 295 295 293 292 293 290 290 290 290 290 289 290 289 289 289 288 287 286 285 286 285 286 286 286 288 286 288 287 287 286 286 285 286 286 287
298 297 297 296 296 296 295 294 294 293 293 293 293 293 293 293 293 293 292 293 294 295 294 294 292 291 289 287 286 286 285 284 283 282 282 282 283 285 289 290 291 291 291 291 293 294 295 293 290 290 292 291 292 293 292 292 293 291 290 290 290 289 289 289 289 289 288 288 287 285 285 285 287 285 286 287 287 288 286 286 285 285 285 286 286 286 286
299 297 296 296 296 295 294 294 294 294 293 293 293 293 293 293 293 293 294 294 295 294 294 293 291 290 288 287 286 285 284 284 284 283 283 281 283 286 289 288 289 290 290 290 292 293 293 291 288 288 290 291 291 290 289 288 290 290 289 290 290 289 289 289 290 288 288 287 286 286 286 286 286 286 284 285 285 285 286 287 286 286 285 287 285 286 285
298 299 298 297 296 295 295 294 295 295 294 293 294 293 293 294 294 294 294 294 294 295 294 293 292 291 288 286 286 285 284 283 283 282 282 282 284 286 287 288 287 289 289 289 292 294 292 290 286 288 291 291 292 290 288 287 288 287 289 289 289 289 289 288 288 288 288 287 287 286 286 285 285 284 284 284 285 286 287 287 286 286 285 286 285 286 286
296 297 296 295 295 294 293 294 295 294 294 293 293 293 294 294 294 294 294 295 295 295 294 293 292 290 289 288 287 286 285 284 283 283 283 284 286 287 286 288 290 291 291 293 294 293 292 289 288 291 292 293 293 291 288 286 285 289 290 290 290 290 289 288 288 288 288 288 287 285 287 285 284 284 284 284 286 286 287 286 286 286 286 285 285 286 286
294 294 294 294 293 293 293 293 293 294 294 295 294 294 294 294 294 294 294 295 295 295 295 293 292 290 290 289 288 288 287 286 286 286 286 287 288 287 287 290 292 293 293 291 293 292 289 288 290 293 291 293 292 290 289 287 285 288 289 289 289 289 289 288 288 287 288 287 286 287 286 286 285 285 286 285 287 286 286 287 286 287 286 285 286 286 286
294 293 293 293 293 293 293 293 294 294 294 295 295 295 295 295 294 294 295 295 294 295 295 294 293 291 291 290 290 289 289 288 288 288 288 288 287 286 285 286 290 293 293 294 293 291 289 290 292 290 291 292 291 289 289 287 287 289 290 289 289 289 287 288 288 287 288 287 288 286 287 286 286 286 285 285 287 286 286 285 286 286 286 285 286 286 288
293 293 293 293 293 293 293 294 295 294 294 295 295 295 295 295 294 294 294 295 295 296 295 295 292 293 293 292 291 290 290 290 290 290 290 289 288 286 285 288 291 293 292 291 290 291 291 292 290 289 289 290 290 288 288 287 288 289 289 289 289 288 288 288 287 287 288 286 287 288 287 287 286 285 285 285 285 285 285 285 285 286 286 285 285 286 287
293 293 293 293 293 293 294 294 294 294 294 294 295 295 295 294 295 294 294 294 295 295 295 294 292 292 293 293 292 291 290 290 290 290 291 291 292 291 290 290 292 294 289 291 292 291 291 291 290 288 289 289 288 287 288 289 289 290 289 290 289 288 288 288 288 289 289 287 286 287 287 285 285 286 285 285 285 285 285 285 285 286 286 286 286 287 287
293 294 294 294 294 294 294 295 294 294 294 293 295 295 295 296 295 294 294 294 294 295 295 294 293 293 293 293 292 291 291 291 290 291 290 289 290 292 294 293 292 291 289 291 292 291 289 290 290 289 287 287 286 286 289 290 290 289 289 290 289 289 288 288 287 287 288 287 286 286 285 285 286 286 285 284 285 286 287 286 286 287 286 285 286 287 286
294 294 294 295 294 294 294 294 294 294 294 295 295 294 295 295 295 295 295 295 294 294 293 295 294 294 294 294 293 293 293 293 293 292 289 288 288 289 293 292 292 291 290 290 291 289 288 288 288 287 287 286 286 287 288 289 288 288 288 289 289 289 289 287 287 287 287 288 287 286 285 285 286 285 285 284 285 286 286 286 286 286 284 284 285 285 285
294 295 295 292 294 294 294 295 295 295 295 295 294 293 294 294 295 294 295 295 295 294 294 294 294 294 294 294 294 294 295 294 294 295 294 293 291 292 294 292 292 289 289 288 289 290 289 286 286 287 286 286 286 286 287 288 287 287 288 289 289 288 289 288 286 287 287 287 286 286 286 286 286 287 285 285 285 285 285 286 285 285 286 285 285 285 285
294 295 295 294 294 294 294 294 295 295 294 293 292 292 293 294 294 294 294 295 295 295 295 294 294 295 296 295 294 292 291 292 293 294 293 293 293 293 291 291 290 288 288 289 288 289 286 286 286 286 286 286 286 287 288 289 288 288 288 289 289 289 288 287 288 287 287 286 286 286 287 287 287 287 285 286 285 284 284 284 284 284 284 285 285 285 285
294 295 295 295 295 295 294 294 294 293 293 293 293 292 292 293 294 294 294 294 295 295 295 295 294 295 296 296 296 295 293 291 288 290 294 294 293 292 291 291 291 289 289 288 288 287 286 286 286 286 286 286 286 288 290 288 288 288 289 289 289 289 287 287 287 288 288 286 286 286 286 285 286 286 286 286 285 284 284 284 284 284 284 285 285 284 284
295 295 295 295 295 294 294 293 293 291 292 294 293 294 294 294 294 294 294 293 294 294 295 295 295 294 295 295 295 293 293 293 290 286 292 293 291 292 293 290 288 288 289 289 290 287 286 286 286 286 286 285 286 289 289 289 288 288 289 289 289 288 287 286 286 286 287 288 286 286 285 285 284 286 286 286 286 285 284 284 284 284 285 285 285 285 285
295 295 294 294 294 294 294 292 291 291 292 294 294 294 294 294 291 292 292 293 292 292 292 293 294 293 292 292 292 293 294 294 293 294 295 295 295 293 290 290 289 288 289 290 291 288 286 286 286 286 285 285 287 290 289 291 290 289 289 289 287 286 286 286 287 288 288 287 287 286 285 284 284 286 286 286 285 284 283 284 284 286 288 286 284 284 285
295 294 294 294 294 295 295 294 293 293 293 293 293 293 293 292 292 291 292 292 292 291 290 291 291 291 291 292 292 293 294 294 294 292 293 294 293 290 290 290 290 289 289 289 289 289 286 285 285 285 286 287 287 289 288 289 288 288 287 285 287 287 287 287 287 287 288 287 286 286 286 286 286 286 285 286 285 285 284 284 285 285 285 284 284 284 284
295 295 295 295 295 295 295 296 295 295 294 294 293 292 293 292 292 291 291 290 292 292 290 290 290 291 293 292 291 291 291 291 290 291 290 291 291 290 290 289 290 288 290 289 289 290 287 287 287 286 286 287 287 288 287 287 287 287 285 285 286 284 285 285 286 285 285 285 284 285 286 285 285 285 285 285 285 286 285 285 284 284 284 284 284 284 284
Wind_Speed
3 4 4 3 5 5 10 9 5 6 5 5 7 3 7 11 7 8 14 16 20 16 16 15 15 14 13 13 13 11 12 12 11 10 10 10 9 9 9 8 8 7 6 5 6 6 5 6 6 5 5 6 6 5 5 6 5 5 4 4 4 5 7 9 9 9 8 7 7 8 8 9 10 11 11 11 11 11 10 11 9 11 11 11 12 13 15
2 3 4 9 7 11 2 11 9 2 4 6 8 6 3 7 4 15 21 13 13 13 14 14 13 12 13 12 11 10 10 11 12 12 11 10 9 10 10 9 8 6 6 6 5 4 4 4 4 5 5 4 4 4 5 5 5 4 3 4 5 6 8 8 8 8 7 7 7 8 9 9 9 9 10 10 10 11 11 11 11 11 11 11 12 13 13
2 5 6 8 10 9 13 15 15 12 15 12 12 14 18 24 18 15 16 16 12 5 11 12 11 11 12 13 13 12 11 11 12 12 11 10 11 10 9 9 6 5 5 5 4 3 4 4 4 4 4 5 5 5 5 4 4 3 4 5 6 7 9 8 7 7 7 6 6 8 8 9 9 9 9 9 9 9 10 11 11 11 11 11 12 12 13
1 3 7 4 10 16 16 14 13 11 8 11 3 7 0 12 14 17 15 11 8 9 12 12 12 13 14 15 14 12 10 10 12 11 11 10 10 10 9 8 7 6 5 4 3 3 3 4 5 4 5 5 6 6 6 5 4 4 6 7 8 8 8 8 7 7 7 7 7 6 8 10 10 9 8 7 8 8 9 11 10 10 11 11 11 12 11
1 6 3 0 0 4 7 8 8 5 6 11 11 13 10 13 25 18 14 11 10 14 13 15 12 13 13 13 12 12 10 12 12 11 11 10 10 9 9 8 7 6 5 4 3 2 3 4 4 4 5 6 6 5 6 5 6 5 5 6 7 8 8 8 8 7 7 8 8 7 7 8 8 9 8 8 7 8 10 10 9 10 11 12 12 11 11
1 5 6 6 3 1 1 3 4 2 3 12 16 7 7 5 3 3 5 16 15 15 15 16 14 13 12 11 8 5 10 13 12 11 10 10 9 9 8 6 5 4 4 4 3 2 1 2 4 5 5 5 5 4 4 5 5 5 5 5 6 7 8 8 9 8 8 8 8 8 6 6 8 9 10 10 8 5 7 9 10 10 10 11 11 11 11
0 2 5 6 2 0 4 4 5 13 13 20 20 13 9 6 14 18 19 18 17 14 12 14 12 9 8 8 10 11 11 11 10 12 11 10 10 9 7 5 4 4 4 2 1 2 5 5 4 5 6 5 4 4 4 5 4 5 5 6 6 6 7 8 8 8 8 8 8 8 7 6 7 8 9 9 10 7 6 9 9 9 8 9 10 11 11
3 3 2 5 3 2 2 4 7 11 14 13 21 14 8 5 9 18 17 17 16 16 15 12 10 10 12 12 10 10 11 11 11 10 10 10 9 8 6 5 4 4 3 2 4 4 2 5 4 4 5 3 4 4 5 5 5 5 7 7 6 6 7 7 8 8 8 7 7 7 7 7 6 7 7 8 9 8 6 6 7 6 6 7 9 10 11
4 2 4 1 1 0 2 3 2 2 4 3 4 8 2 3 5 12 18 17 15 15 14 14 12 12 13 12 8 7 10 11 10 9 9 9 8 6 5 5 5 4 2 3 5 5 5 5 5 5 4 5 5 6 7 5 6 6 5 6 5 6 6 6 7 6 6 6 6 6 6 6 7 6 5 6 6 6 6 5 7 7 6 7 6 7 9
4 6 4 2 1 5 7 4 1 1 3 9 6 9 4 5 6 8 17 19 18 17 15 14 14 13 15 10 6 5 8 10 10 9 8 7 6 5 5 5 4 4 2 4 5 7 7 7 5 6 6 6 7 6 5 5 5 5 5 5 5 5 6 6 6 6 5 5 5 5 5 6 6 6 5 4 5 5 6 6 7 7 5 6 6 6 8
4 4 4 3 4 3 5 8 4 3 6 11 5 8 3 5 11 9 13 16 17 19 19 17 16 14 13 9 7 7 9 9 8 8 8 7 7 5 4 5 4 3 3 6 7 7 7 7 6 6 6 7 6 6 5 5 5 6 5 4 5 6 5 5 5 5 5 5 5 5 5 5 5 6 6 6 4 4 5 5 5 5 5 6 6 6 6
3 4 2 3 1 1 3 6 5 7 5 2 2 3 6 11 13 13 15 17 17 15 14 14 12 14 17 13 10 9 11 9 7 7 8 6 6 7 7 5 5 4 6 9 8 7 6 5 4 4 4 6 5 5 5 5 5 5 6 6 5 5 4 4 4 5 4 4 4 5 4 4 5 5 4 5 6 4 4 4 5 5 4 5 7 7 6
7 7 1 2 0 3 3 5 5 5 3 3 5 8 5 14 15 14 14 16 15 15 15 11 10 2 4 11 13 12 10 10 9 6 5 6 7 7 6 6 4 5 5 8 8 7 5 5 5 5 6 6 5 5 5 5 6 5 4 4 4 4 4 4 4 4 4 4 4 5 4 4 4 4 5 6 6 6 5 4 4 6 5 5 6 7 7
6 4 4 1 0 2 0 4 6 4 4 2 7 2 8 19 17 14 15 16 14 14 13 6 6 11 13 12 11 11 10 10 9 7 7 7 4 4 4 6 6 5 6 7 7 5 5 5 5 5 5 4 3 4 5 5 5 4 4 5 5 5 5 3 3 4 3 2 3 4 4 5 5 6 5 5 5 6 7 5 5 5 5 5 6 7 7
3 2 4 2 3 3 2 4 4 2 2 2 2 9 12 13 17 17 14 13 14 13 10 10 14 17 15 13 11 11 12 11 10 8 9 6 6 5 3 8 6 6 5 6 5 5 4 4 4 4 4 5 5 5 5 4 5 5 4 6 6 5 5 5 4 4 3 3 4 4 4 5 5 5 5 6 6 6 6 6 6 6 6 5 6 7 7
4 3 3 2 2 5 1 3 4 1 1 6 9 14 12 10 12 13 13 13 12 11 12 14 16 17 15 12 12 12 11 9 8 7 6 6 5 5 4 6 8 7 6 6 6 5 5 5 4 4 5 7 5 5 5 4 5 6 6 5 6 7 7 6 4 5 3 2 3 4 5 5 5 5 6 5 5 6 6 6 6 7 7 6 6 7 8
1 2 2 1 1 6 4 7 5 8 9 8 6 9 14 15 11 9 11 13 13 14 16 16 16 15 14 15 13 13 12 10 9 8 7 6 5 5 5 9 8 7 7 7 6 5 5 5 5 5 5 6 5 4 3 5 5 5 6 4 6 6 6 7 5 4 5 3 3 4 4 5 5 5 5 5 6 5 6 6 6 6 7 6 6 6 7
7 8 4 5 6 8 8 9 10 12 11 9 9 12 12 8 11 10 11 13 15 16 16 17 14 14 14 15 13 11 11 12 10 7 6 5 4 7 8 7 8 7 6 6 5 5 4 4 5 4 3 4 5 4 3 5 5 5 6 4 6 6 6 7 8 5 5 4 3 4 5 5 4 4 4 4 4 5 6 6 5 6 6 6 6 6 6
6 3 2 8 10 7 8 10 9 10 10 11 10 9 9 12 11 12 12 14 15 16 16 16 16 15 14 14 11 11 10 9 8 7 6 7 8 9 10 9 8 7 6 6 6 5 5 4 4 1 1 3 5 4 5 5 5 6 7 5 4 5 6 6 7 7 7 4 3 4 4 5 4 4 4 4 4 4 5 5 5 5 6 6 7 6 6
3 6 4 8 9 9 7 9 10 11 12 11 8 9 10 11 12 13 15 15 15 14 13 14 17 16 13 13 13 10 8 7 10 9 8 8 8 8 8 7 8 7 6 5 5 5 5 4 5 5 5 5 5 4 5 5 5 6 6 6 5 4 5 6 6 5 5 6 4 3 4 4 5 5 3 3 5 4 4 4 5 6 5 6 6 6 7
7 9 9 11 11 10 8 6 7 7 10 13 13 13 14 14 15 15 13 12 13 12 15 14 15 16 14 14 13 10 8 9 9 9 9 7 6 6 9 9 9 7 6 6 6 5 4 3 5 5 5 4 3 4 5 4 5 6 7 6 6 6 6 6 6 5 6 6 4 3 3 4 3 1 2 3 2 3 3 1 1 3 5 4 4 4 5
7 7 10 13 10 7 8 9 11 10 10 13 13 13 13 14 15 14 14 11 10 12 14 14 14 16 15 12 9 9 10 10 10 10 9 7 6 7 8 8 8 7 6 7 6 6 5 5 5 4 3 2 3 4 5 4 5 7 6 7 6 5 5 6 7 5 5 6 6 6 2 2 2 2 1 4 4 2 0 0 2 1 1 0 2 3 5
7 5 9 4 8 9 9 11 12 12 11 12 12 12 13 13 14 13 14 14 13 13 11 12 14 14 14 11 10 11 10 11 10 10 9 7 6 7 8 9 8 6 6 6 5 5 5 5 5 4 5 5 4 4 4 4 5 5 6 6 5 7 6 6 8 7 3 4 5 5 5 1 2 1 1 1 7 6 3 2 3 3 4 4 6 5 2
8 10 6 8 8 10 12 13 14 13 11 12 12 11 11 13 14 13 13 15 17 14 13 11 11 12 11 11 13 12 11 11 11 9 7 7 7 7 7 7 7 6 6 6 5 5 5 5 5 5 4 4 4 4 5 5 5 5 5 5 6 5 5 4 7 7 4 4 5 6 7 6 4 4 5 3 1 3 3 4 4 5 5 7 8 9 8
11 7 9 10 12 12 11 13 11 12 12 13 12 13 12 13 12 12 15 14 13 16 14 13 9 8 13 13 13 12 11 10 9 10 9 8 9 9 8 7 7 6 6 5 5 5 5 5 5 5 4 4 4 4 4 4 5 5 3 5 5 5 5 5 5 6 7 4 4 6 6 5 4 4 4 4 6 2 3 5 4 5 8 7 8 9 10
12 12 13 12 11 11 10 11 11 12 13 14 13 12 12 11 14 14 14 14 13 11 11 10 12 11 13 14 12 10 9 9 10 10 9 9 8 7 6 6 6 6 6 5 5 5 5 6 5 5 4 2 2 2 2 5 4 5 4 5 4 4 4 4 4 5 6 4 5 6 5 4 3 3 3 4 5 3 4 7 4 2 7 7 8 8 8
12 14 17 14 11 9 8 10 10 12 13 12 13 13 12 13 15 13 12 11 9 8 11 13 13 12 11 10 10 9 10 9 9 9 9 9 8 7 7 7 7 6 6 5 4 5 6 5 5 4 3 2 0 3 4 3 3 5 5 4 3 4 6 5 4 4 6 3 4 5 5 5 4 3 4 4 5 5 4 4 5 2 1 2 6 5 4
11 11 13 14 12 10 9 9 10 10 10 11 13 14 14 13 11 11 8 10 12 10 11 12 13 11 10 10 10 10 10 10 9 8 8 7 7 7 8 8 8 7 5 5 5 4 5 6 5 4 2 1 3 3 4 4 4 2 5 4 3 4 3 3 4 3 4 3 3 4 3 5 6 5 4 5 5 4 2 3 3 5 1 1 2 4 8
8 6 6 9 10 9 9 9 9 10 10 10 10 12 13 13 11 9 9 12 12 11 12 10 11 11 10 10 10 10 8 8 9 8 7 7 7 7 8 8 7 7 6 5 4 4 5 5 5 4 2 2 4 4 4 5 3 3 0 5 4 3 2 1 3 3 4 3 4 4 4 6 7 5 7 4 5 5 4 3 4 4 3 1 4 5 6
7 8 9 10 11 11 12 10 11 11 12 10 11 11 11 12 10 10 11 11 11 11 10 11 11 11 11 10 10 9 8 9 8 7 8 7 7 6 5 5 5 5 5 5 5 5 6 5 5 4 3 4 5 4 3 4 4 4 2 5 4 4 2 0 1 2 4 4 3 5 5 5 3 3 4 4 4 5 4 4 4 4 3 2 4 3 5
9 9 11 13 13 11 11 11 11 12 10 10 11 12 10 7 11 12 11 10 8 9 9 11 11 11 11 11 8 6 7 8 8 8 7 7 6 5 5 5 7 6 6 4 4 5 6 6 5 4 3 3 4 4 4 3 3 4 2 3 4 3 4 3 5 2 2 3 3 3 4 2 3 4 3 3 3 3 3 3 4 4 4 2 2 2 3
13 14 15 13 12 13 11 10 11 11 10 10 10 6 7 13 14 12 9 8 8 9 11 12 11 11 10 7 7 9 9 8 8 8 7 7 6 3 3 4 5 6 5 5 4 4 5 5 5 1 2 4 5 4 4 4 3 4 3 4 3 4 4 5 3 3 2 2 2 2 3 2 1 1 2 3 2 2 1 3 3 3 3 2 0 0 2
15 15 14 13 12 12 12 10 11 11 9 8 7 6 8 9 12 11 8 8 9 9 10 11 10 9 6 7 9 9 9 8 7 7 7 6 5 4 2 5 7 6 6 5 5 4 5 6 4 2 2 3 4 4 4 3 2 3 3 4 1 2 1 4 2 2 3 4 4 0 2 1 1 1 2 3 3 2 1 1 2 2 3 1 1 1 1
11 10 11 12 12 14 14 13 9 9 6 8 10 8 8 10 10 10 9 9 9 9 10 9 8 7 8 9 8 9 9 9 8 7 6 6 4 4 3 3 7 6 5 4 4 4 5 5 4 3 2 4 4 5 4 2 1 1 2 3 4 5 4 1 2 2 4 3 3 2 1 2 3 4 4 2 1 2 1 1 2 1 1 2 1 1 2
7 7 8 9 10 10 10 11 9 6 9 11 10 10 8 9 9 9 10 9 8 9 8 8 8 8 9 9 10 8 9 9 8 7 6 5 4 2 3 1 4 4 4 5 4 5 5 6 5 4 3 3 2 2 4 2 0 1 2 2 2 2 5 1 3 3 2 3 1 4 5 6 5 5 4 2 3 2 0 1 1 1 2 2 1 1 2
8 8 7 9 9 9 7 7 8 9 9 9 10 10 11 8 8 10 9 7 7 8 8 9 9 10 10 9 9 9 9 8 7 7 6 6 4 1 1 0 1 5 3 4 3 5 5 5 8 8 4 4 4 4 3 2 0 0 1 2 4 4 5 2 3 4 4 4 2 3 3 5 5 4 4 1 1 1 3 3 3 3 2 0 2 1 3
8 8 7 7 6 6 9 9 9 9 8 8 10 10 10 8 10 8 6 7 7 7 9 10 10 11 10 9 9 8 8 9 8 7 7 5 3 2 1 1 1 2 3 6 5 4 6 6 8 10 5 7 5 4 2 3 0 1 1 1 2 3 4 0 4 3 4 2 2 2 4 6 7 7 4 3 4 3 2 1 3 3 2 0 2 1 2
9 10 9 5 8 10 8 5 8 9 8 9 10 8 8 9 10 7 7 7 8 9 10 11 11 10 9 7 8 9 8 6 7 6 6 5 4 4 2 2 4 2 3 7 4 7 6 7 8 6 4 5 6 5 4 5 3 4 1 2 2 3 3 1 4 3 3 3 2 2 6 4 3 3 2 4 4 3 0 1 2 4 4 0 2 2 2
8 8 7 8 10 9 6 7 9 8 10 12 9 7 9 12 9 6 7 8 8 10 10 10 11 11 10 10 8 7 7 7 7 7 6 5 4 5 6 6 6 6 8 4 8 8 8 7 5 5 5 4 6 5 6 6 6 4 1 1 3 2 4 1 3 1 2 1 2 4 6 5 3 3 3 4 3 1 1 3 5 5 5 3 3 1 2
10 10 10 9 9 7 7 5 7 8 8 8 7 8 11 11 7 6 7 8 8 11 10 10 11 11 9 10 10 9 8 8 8 8 7 6 5 5 4 4 5 5 2 9 7 8 8 10 6 5 4 6 7 5 5 6 7 1 1 1 2 4 4 3 2 2 1 2 2 3 3 2 3 4 4 3 2 2 3 5 6 6 7 3 3 1 2
8 9 8 10 8 6 7 6 7 8 9 8 8 8 9 10 6 8 9 8 6 12 11 10 10 9 9 10 10 9 8 8 7 8 7 6 5 5 6 6 6 4 3 6 8 8 9 6 5 4 4 7 7 7 6 6 2 2 0 1 2 4 5 4 2 3 1 0 0 2 1 1 4 6 5 1 0 1 4 3 4 4 4 3 2 1 0
9 7 8 9 7 7 6 6 8 8 8 8 9 10 9 8 6 7 6 7 9 13 12 11 12 12 9 8 8 7 8 7 7 7 8 9 9 7 7 7 6 4 8 10 9 9 6 5 4 5 5 6 8 10 8 5 4 2 1 1 3 4 4 1 3 3 0 1 2 1 2 0 3 3 2 0 2 2 2 3 4 3 4 3 2 2 0
10 9 8 8 7 7 7 7 8 8 8 7 8 9 10 9 8 7 5 7 9 13 12 10 12 12 10 10 8 9 7 7 7 7 7 7 7 7 9 7 5 6 10 8 7 6 7 5 5 5 8 8 8 9 8 4 3 1 0 0 1 3 6 3 2 2 1 3 3 1 3 1 1 1 2 0 1 1 1 2 2 1 3 2 1 0 0
10 8 7 8 8 7 7 8 7 8 7 6 7 7 7 7 5 6 6 7 7 10 9 11 10 10 10 11 10 9 7 8 8 7 7 7 5 5 6 7 5 7 14 10 9 8 7 6 5 8 12 12 10 8 5 2 1 2 1 1 3 3 7 4 4 3 2 2 3 2 4 2 1 0 2 2 2 1 0 1 0 0 2 2 0 1 2
9 7 8 8 7 7 8 8 9 10 7 7 7 6 6 9 7 7 6 8 7 8 7 9 10 11 9 10 10 10 10 11 10 9 8 8 8 8 7 7 8 8 10 12 8 6 6 6 8 12 10 10 9 8 3 1 3 3 2 2 2 2 5 6 5 3 4 6 6 3 5 3 2 2 1 2 1 0 1 1 1 1 2 3 4 4 3
9 8 9 9 9 8 8 9 9 8 8 9 7 6 5 7 8 6 6 10 8 7 5 7 8 9 8 10 9 10 9 9 9 10 11 11 11 9 8 11 10 9 11 10 6 7 7 10 13 12 11 10 9 6 3 3 4 4 2 2 3 4 5 6 6 2 2 3 2 2 3 3 2 0 3 3 2 3 3 2 4 4 4 3 2 2 3
8 8 9 8 8 8 9 7 8 10 9 8 9 8 6 7 7 5 5 9 9 9 6 5 5 8 8 7 7 9 9 8 8 9 8 7 7 6 11 15 12 11 8 7 8 7 7 9 9 10 10 9 8 4 4 5 5 4 3 3 4 4 6 7 2 5 5 4 4 3 2 1 1 0 4 3 3 4 3 4 4 3 2 2 3 3 4
8 8 10 9 10 10 6 7 10 9 8 10 9 8 6 5 8 6 5 6 7 9 9 6 5 5 7 7 7 6 7 9 9 5 6 8 7 7 7 7 9 12 11 8 10 9 13 12 11 10 10 9 7 5 6 5 4 3 2 3 3 4 4 2 4 5 4 4 3 3 1 1 1 1 3 2 2 5 4 5 4 3 2 1 1 2 3
7 7 8 8 11 10 7 9 9 9 7 9 10 9 8 7 8 8 7 5 5 6 8 8 8 6 6 8 6 5 5 7 7 6 6 6 7 8 9 11 15 14 10 8 8 7 10 12 11 11 11 8 6 6 5 5 4 4 4 4 4 4 2 2 3 3 2 1 1 1 1 1 3 1 2 1 1 4 4 4 3 3 1 1 1 0 0
7 7 7 8 9 9 7 7 7 7 7 10 11 9 8 8 8 8 8 8 6 7 8 7 7 7 4 5 5 7 7 5 4 7 10 9 7 6 7 7 7 7 8 8 7 7 7 11 10 10 8 6 6 6 5 4 4 4 4 4 4 3 1 1 4 2 0 1 2 3 4 4 2 2 1 2 1 3 4 3 2 3 4 3 2 2 1
8 8 7 7 7 8 7 6 7 7 7 8 8 9 9 9 9 9 9 7 7 5 5 5 5 6 6 4 6 7 6 6 8 7 9 9 8 9 9 8 8 8 8 8 8 8 7 6 6 6 7 7 7 6 5 6 5 4 5 5 2 1 0 0 0 0 0 1 1 1 0 0 1 1 1 1 2 2 3 3 2 2 2 2 3 3 2
7 6 7 7 7 7 7 7 6 7 7 9 8 8 9 8 8 8 8 9 9 9 7 7 9 7 7 7 6 6 6 7 6 6 8 8 8 8 8 9 8 7 7 6 6 7 7 8 7 8 8 7 7 6 6 6 6 5 6 4 5 3 3 3 3 2 2 2 2 1 0 1 1 1 0 1 2 1 1 2 3 3 2 2 3 3 2
Wind_Direction
31 12 333 38 14 214 181 221 230 241 228 190 207 147 158 147 167 185 161 161 138 153 151 144 140 140 138 137 136 136 139 145 148 145 135 128 120 111 104 96 84 81 74 67 58 46 38 45 50 38 37 41 45 43 55 66 66 64 58 51 48 49 51 49 46 41 34 30 27 27 30 38 38 37 34 27 20 18 19 23 19 15 14 18 18 19 18
21 311 39 18 61 29 23 193 221 221 89 84 88 54 53 94 109 136 148 143 128 138 139 135 135 132 129 127 125 131 148 153 147 136 128 122 113 105 102 96 91 84 80 74 66 57 36 42 49 47 40 39 43 55 59 67 71 67 64 45 51 51 51 51 48 43 36 30 30 32 35 35 36 35 34 29 25 21 20 19 16 12 11 20 20 18 17
14 10 1 58 65 82 68 36 40 69 85 74 95 100 93 85 79 98 111 117 111 99 118 120 121 121 123 128 136 147 158 152 135 128 123 118 119 116 108 106 104 98 91 85 79 57 43 37 40 54 45 35 32 34 36 55 75 59 60 50 51 56 54 50 49 41 33 27 25 35 38 35 32 31 31 30 26 26 25 21 16 12 11 19 23 18 14
345 30 65 105 88 79 71 43 28 15 71 92 58 101 147 108 124 120 112 115 132 138 130 122 126 132 136 139 144 152 158 137 128 129 127 124 118 113 110 104 98 93 85 80 75 65 42 40 50 58 52 41 43 36 32 35 36 47 56 56 57 56 55 49 44 37 29 24 25 30 39 37 32 26 24 25 30 29 30 25 17 13 17 20 24 17 14
21 323 345 10 156 45 26 359 337 348 55 100 74 57 47 129 134 128 153 178 146 141 139 133 139 140 141 142 152 155 141 129 130 128 122 114 108 103 101 101 103 102 104 104 101 90 81 70 60 52 63 56 45 41 39 28 46 47 51 58 62 62 56 51 41 31 26 26 24 28 39 41 35 30 22 18 24 30 32 25 16 19 21 21 23 17 14
232 326 11 10 63 165 103 289 287 259 135 102 87 55 79 85 51 173 139 136 134 137 142 141 148 146 149 147 144 142 135 132 126 117 112 108 103 100 98 100 105 115 123 133 142 151 130 81 66 62 65 70 55 46 42 36 49 50 51 50 62 62 59 53 44 34 31 29 26 25 34 40 39 34 26 21 16 26 31 24 21 19 22 26 23 18 12
104 14 41 51 261 303 273 306 87 92 100 89 85 77 53 74 103 103 110 124 134 137 133 133 135 127 107 98 105 108 112 109 112 115 112 110 108 108 111 118 126 119 120 131 85 57 72 74 68 68 61 66 62 40 35 51 54 59 48 49 55 63 63 56 49 39 32 29 26 23 27 36 39 37 32 26 19 17 29 26 19 19 19 23 20 15 8
51 49 70 163 199 246 292 50 93 104 97 99 87 61 40 41 114 123 123 131 132 135 133 129 122 108 98 83 71 90 99 106 112 114 117 118 120 126 142 142 136 117 126 118 84 76 60 66 51 70 91 85 71 44 45 47 36 45 58 54 52 61 65 61 54 45 38 31 27 25 27 33 33 34 33 28 25 15 21 24 20 16 22 23 19 14 9
128 122 66 91 347 175 126 110 157 191 164 216 148 118 62 124 131 130 131 133 133 131 132 128 118 114 97 85 72 63 93 99 100 107 114 118 119 128 127 125 127 143 149 101 91 68 56 56 52 45 47 50 53 50 54 34 40 44 57 55 50 60 73 68 61 52 48 42 32 29 32 38 34 29 29 23 25 25 23 23 17 17 22 18 13 12 8
101 122 110 90 167 198 205 235 163 40 118 105 109 99 122 144 143 151 138 142 141 137 135 130 130 121 106 109 113 102 101 101 106 108 109 113 117 125 130 115 118 121 103 82 78 76 64 53 50 56 52 53 54 50 44 38 37 39 53 62 56 67 76 77 67 58 53 49 38 31 34 41 38 30 23 18 27 21 32 20 18 14 16 12 7 8 7
90 98 125 161 185 259 172 198 163 165 139 135 152 75 128 163 146 150 139 137 145 147 145 144 143 139 140 146 148 141 122 116 120 125 128 128 139 139 130 122 118 120 104 98 85 70 65 59 45 55 58 59 58 48 37 30 39 42 32 31 42 61 82 84 75 67 58 48 39 35 36 36 39 34 22 20 5 20 28 30 21 11 15 14 6 360 1
148 134 126 171 178 239 209 151 150 163 164 186 67 152 219 171 153 148 148 147 149 148 143 144 152 155 148 157 162 148 134 135 138 139 140 136 123 117 119 133 150 131 96 85 75 76 75 72 61 55 58 69 65 55 35 36 34 39 51 49 48 56 77 83 89 76 67 58 38 37 38 35 38 34 23 17 12 16 13 28 23 15 15 17 12 359 350
136 126 83 59 335 292 148 152 150 146 134 73 108 201 202 152 148 150 150 149 148 146 147 156 148 79 85 131 137 138 136 133 134 132 125 124 131 142 149 157 128 96 97 111 120 115 102 76 57 51 70 71 66 64 52 35 25 10 46 54 45 50 72 78 91 91 78 79 51 25 38 52 46 35 27 22 11 13 8 8 19 13 16 19 11 1 351
133 137 103 156 204 249 152 174 125 126 77 123 209 250 139 143 145 149 150 146 145 145 148 127 97 115 125 129 132 133 132 133 136 135 131 138 145 161 133 125 101 86 88 88 88 85 93 86 67 63 74 77 56 63 69 42 20 9 54 35 21 28 50 64 85 94 92 68 61 43 35 53 56 40 23 21 15 13 8 9 12 9 11 18 14 2 351
54 60 92 103 153 236 167 119 58 38 119 230 166 115 118 133 141 145 145 143 144 147 130 119 127 127 134 139 139 132 131 140 148 150 149 151 156 162 130 112 105 100 83 82 92 105 101 95 86 80 74 56 55 64 60 24 25 29 26 55 36 32 37 15 35 74 92 84 61 50 41 53 71 54 32 21 10 12 14 9 10 9 6 12 14 6 358
135 140 159 191 239 161 161 144 168 185 162 153 140 129 124 136 141 145 140 143 146 132 128 134 133 135 134 132 133 134 142 152 155 150 150 152 154 159 142 121 115 102 95 87 81 74 75 73 70 68 77 65 57 64 55 37 31 33 29 44 47 25 11 5 345 30 64 87 54 51 56 57 65 66 41 25 14 12 14 14 15 13 5 7 14 13 6
128 160 188 250 2 77 74 101 116 109 108 116 122 123 135 141 143 138 138 141 133 136 136 133 134 134 139 138 147 150 157 155 151 150 155 162 159 148 141 124 119 119 119 116 104 89 83 76 72 71 78 84 67 63 54 57 39 38 32 36 51 32 15 6 343 13 45 66 58 61 59 65 62 62 47 36 22 5 17 16 17 21 7 6 11 11 5
102 56 71 112 76 76 72 83 111 117 112 104 115 122 124 127 133 145 146 137 135 138 137 133 137 137 142 143 152 160 157 154 153 157 155 151 156 134 118 107 107 110 109 108 109 108 92 108 118 111 114 117 86 65 58 64 45 43 46 38 51 28 23 11 4 352 38 44 47 51 53 51 67 73 82 49 39 12 22 19 21 20 11 8 4 3 0
96 90 331 87 101 100 94 99 96 101 112 122 126 128 123 133 139 129 126 130 134 137 139 137 136 140 147 146 154 159 152 142 147 154 152 144 126 116 115 123 120 112 112 107 105 97 79 54 63 46 87 90 93 86 76 62 44 39 43 32 48 49 22 11 9 5 26 29 35 39 44 45 36 52 53 70 50 32 20 25 23 21 14 12 6 357 351
73 141 133 103 99 96 103 108 116 118 121 120 113 111 115 115 114 118 124 128 130 137 135 140 139 142 148 148 153 159 146 145 143 144 128 116 117 127 133 132 123 119 117 118 109 101 90 72 61 56 54 65 64 64 81 72 58 46 50 49 29 17 30 28 19 14 29 34 40 56 54 55 44 13 35 54 66 40 26 9 35 23 20 16 8 356 343
95 88 103 112 105 101 101 91 79 95 111 112 109 110 113 115 116 121 125 133 137 140 138 141 142 139 148 157 159 149 143 141 127 121 116 117 118 117 116 119 114 116 116 110 114 110 112 103 84 76 60 43 38 79 97 93 86 70 46 39 44 27 2 11 17 20 22 28 27 71 80 67 60 76 25 32 69 76 14 17 25 63 41 20 358 339 336
152 163 158 140 134 147 134 121 116 110 109 110 114 116 117 123 126 128 130 132 135 136 142 144 146 145 154 161 152 142 135 127 120 119 118 119 102 102 109 106 108 110 112 113 109 108 104 91 82 77 77 50 45 74 84 74 89 87 67 46 35 19 22 14 349 353 27 30 21 24 85 147 110 71 86 108 62 115 219 66 91 272 211 57 275 295 334
181 158 142 93 99 107 118 121 119 117 113 116 122 130 130 130 133 137 136 138 136 142 144 151 151 153 158 155 137 124 122 121 123 125 127 123 119 111 105 101 101 106 109 110 108 110 117 102 83 69 50 29 22 51 72 74 91 101 90 68 39 20 17 12 360 334 11 34 24 28 29 93 174 206 284 360 48 47 54 328 357 336 320 294 293 280 270
114 137 125 119 120 124 127 122 120 123 125 121 124 125 129 136 142 147 145 145 145 146 154 159 163 158 145 133 121 121 122 125 129 133 134 131 125 120 114 119 124 115 108 101 105 114 111 107 105 86 52 25 29 41 64 55 63 95 105 94 65 31 16 10 0 1 350 27 27 30 16 4 5 50 54 35 39 307 315 329 335 328 307 311 311 315 313
149 139 113 108 109 109 113 116 120 121 127 129 133 140 145 149 154 148 143 149 157 153 156 165 160 134 128 121 121 127 132 136 138 138 136 130 125 125 134 134 134 132 133 128 121 113 108 108 104 100 80 41 21 24 55 61 71 73 88 98 83 51 31 8 2 360 8 6 13 20 27 8 356 35 46 45 34 3 299 263 267 296 306 305 308 307 315
120 115 108 105 106 111 114 114 118 125 129 138 142 150 156 151 143 146 153 154 159 163 154 141 130 127 122 125 127 133 131 136 137 130 126 128 132 135 133 134 132 124 121 124 130 127 122 116 112 105 103 88 25 357 80 89 72 62 100 109 111 84 38 18 13 358 9 339 24 4 1 19 341 31 39 44 31 58 29 3 4 301 271 284 290 306 322
106 114 113 107 109 119 136 134 135 141 144 147 148 145 143 143 150 156 159 157 148 133 129 127 123 125 123 123 123 126 129 129 121 122 128 134 140 141 134 122 115 115 119 124 131 134 121 110 105 110 120 136 18 41 59 51 75 85 103 123 115 73 36 20 19 4 351 338 11 4 359 356 331 352 36 32 33 46 56 45 18 15 263 310 312 294 328
111 122 131 138 146 146 139 127 133 134 136 136 140 142 144 151 155 154 135 119 121 123 121 122 121 113 110 112 118 123 120 122 126 132 132 139 139 133 128 132 135 138 144 145 154 148 124 114 107 91 48 106 73 50 57 49 37 58 105 129 120 79 29 14 2 349 346 320 3 1 339 348 0 10 31 34 29 32 54 19 23 16 357 286 283 334 10
117 109 109 116 123 127 125 125 126 129 129 136 137 139 150 153 155 142 127 127 125 122 119 112 107 108 115 122 123 129 130 130 131 136 137 133 126 129 137 142 148 152 157 165 160 140 126 120 120 109 89 73 84 63 54 18 32 19 28 119 109 101 54 350 344 328 344 347 354 346 359 38 37 32 24 9 15 26 28 357 354 355 37 5 10 358 353
121 118 120 119 124 132 136 138 139 136 142 147 147 153 158 157 144 129 128 125 125 123 122 113 110 119 126 129 138 146 143 141 140 133 125 124 130 136 144 138 118 114 112 115 134 131 119 125 121 126 138 110 99 86 56 32 10 8 16 129 130 148 148 239 310 322 350 343 360 24 48 60 49 45 30 2 8 22 19 351 347 358 4 18 39 34 6
126 125 123 129 135 139 140 140 139 148 155 156 163 167 170 135 127 125 128 124 117 118 115 117 124 129 135 148 156 148 136 128 126 124 124 127 133 147 151 133 133 150 148 143 125 125 131 128 133 144 149 117 111 101 74 23 12 5 21 109 143 191 177 246 279 304 328 325 34 66 66 47 54 44 5 1 6 11 356 19 8 349 359 48 54 31 334
124 124 131 139 144 144 141 146 156 161 166 165 162 159 145 138 131 129 125 114 124 123 122 126 133 143 156 154 143 132 123 123 124 123 127 132 153 166 168 145 145 147 143 127 116 102 115 125 118 134 148 114 103 93 66 25 32 25 340 115 174 236 220 235 267 327 340 334 30 107 111 101 67 63 334 328 328 334 332 19 3 351 11 38 16 267 301
132 139 145 151 150 147 149 159 165 167 171 154 145 143 129 122 124 125 124 128 122 124 129 137 149 156 153 139 129 124 123 117 114 116 119 121 109 70 94 127 128 132 128 145 155 142 124 131 146 155 129 122 114 102 89 67 48 42 333 320 298 283 345 225 62 13 28 13 23 53 164 181 211 203 233 267 272 274 342 3 350 16 352 338 209 236 267
150 156 155 157 154 155 158 164 173 169 157 136 140 130 116 118 122 124 128 132 133 136 147 156 158 146 138 127 117 114 112 111 115 127 137 125 103 71 39 110 132 140 156 163 144 134 129 149 135 118 114 105 146 123 123 113 34 1 31 355 339 346 322 276 73 59 50 8 10 317 231 298 314 291 262 243 222 242 329 296 317 328 352 332 321 246 265
142 150 156 152 150 158 165 168 168 152 138 141 135 131 123 121 123 129 140 144 149 157 155 146 138 127 115 111 119 125 128 138 151 147 150 138 125 103 30 34 126 135 144 178 166 172 174 154 150 142 127 85 98 153 126 114 265 22 2 335 357 12 290 237 104 66 60 345 23 7 352 331 315 329 308 236 202 232 352 360 311 343 18 6 337 356 333
156 158 155 154 164 167 158 143 133 133 124 120 127 133 134 138 134 141 148 153 149 139 130 119 113 111 114 120 125 132 137 143 148 147 150 152 156 103 54 38 128 170 176 221 233 184 151 145 146 143 131 100 83 122 148 149 183 109 308 354 6 355 332 254 101 58 22 18 346 5 319 297 308 328 311 339 150 66 67 19 345 340 28 125 139 60 1
163 157 160 166 164 145 129 133 130 126 126 125 128 134 139 139 142 149 144 137 136 123 119 121 119 122 135 143 144 140 141 148 151 153 164 168 146 113 167 280 340 222 197 211 227 177 152 161 163 146 157 137 140 162 177 168 95 248 209 50 333 353 330 259 82 63 13 324 354 329 300 336 339 330 317 8 80 110 97 24 336 351 24 154 108 99 24
170 166 167 156 141 143 133 134 136 134 127 131 134 141 144 143 146 148 144 140 134 126 133 131 133 134 133 130 132 139 150 154 148 152 151 157 151 160 212 226 254 262 225 228 206 165 159 175 168 154 191 158 158 178 194 201 178 254 94 326 360 13 324 245 93 63 49 342 317 309 325 350 328 316 334 25 88 124 97 302 332 349 19 5 104 95 80
135 133 130 125 127 128 120 122 124 127 130 138 140 136 140 144 150 149 141 147 140 136 138 135 135 134 141 138 140 145 156 162 157 150 155 172 173 167 210 213 221 213 236 204 147 152 164 176 188 177 179 174 166 172 185 201 214 237 285 269 78 356 309 234 111 104 85 344 324 350 1 346 335 343 350 40 97 108 15 7 353 359 13 75 117 82 57
133 130 131 126 125 125 128 135 127 131 136 136 133 139 144 149 156 145 145 154 143 141 139 141 140 143 149 149 149 161 171 169 162 159 167 173 177 195 248 274 257 265 236 137 131 149 175 195 185 201 177 145 159 165 175 211 226 206 271 41 38 323 280 226 159 111 68 9 340 37 35 338 339 354 26 68 81 64 35 33 32 20 11 50 122 178 40
133 135 135 129 134 139 149 145 142 142 141 138 135 138 143 158 161 153 165 174 149 143 143 146 142 149 154 160 159 163 163 168 165 170 168 160 183 196 200 235 255 234 178 172 155 180 183 187 193 174 135 147 156 158 189 212 217 225 187 66 8 295 251 229 176 142 140 154 239 94 138 302 26 7 16 14 167 52 50 54 50 34 44 67 155 221 302
139 138 132 135 146 151 150 143 134 134 141 144 147 148 159 174 167 169 174 168 144 147 152 156 156 159 161 159 150 149 154 167 168 175 174 178 188 185 183 239 236 229 192 188 168 171 174 199 187 141 138 141 147 176 183 196 214 212 116 106 328 269 236 194 176 197 332 185 206 134 161 95 69 34 359 324 59 44 60 60 49 26 355 45 148 207 177
141 149 151 151 153 150 145 141 138 143 141 148 148 157 168 173 180 182 153 156 146 145 158 163 161 156 152 152 152 157 167 170 174 184 196 212 193 173 190 222 233 204 170 167 173 176 182 199 180 147 151 148 162 175 177 197 225 224 292 79 306 285 278 239 185 154 180 176 217 178 157 180 124 101 78 94 226 165 117 118 90 29 336 9 197 245 308
154 157 153 152 153 151 145 141 140 145 150 163 171 164 152 168 175 168 152 147 152 147 143 156 166 160 161 158 160 165 174 176 184 186 192 213 227 226 209 216 235 178 173 170 182 182 186 186 183 157 153 151 158 170 184 182 222 260 258 247 268 295 278 233 206 200 221 229 207 193 168 195 159 172 124 172 218 231 97 167 211 359 18 40 230 278 359
159 158 154 154 155 145 149 149 153 165 170 166 175 165 145 159 165 174 153 150 161 161 145 156 165 166 168 161 168 181 185 184 183 176 179 197 205 230 215 182 165 168 189 181 175 151 150 161 155 150 149 158 166 170 153 181 239 235 241 262 285 290 287 251 216 210 202 189 214 160 162 182 188 210 156 184 245 187 130 110 46 30 72 60 42 16 344
161 158 156 158 157 161 159 167 173 164 152 157 169 166 159 164 167 168 149 157 157 170 158 162 163 166 171 173 182 184 181 181 186 188 191 184 188 209 187 174 190 189 178 168 120 148 161 156 153 152 157 167 165 149 159 221 235 237 260 276 285 286 289 292 281 289 7 9 354 151 183 202 213 185 120 149 175 135 135 111 79 70 81 76 46 7 355
163 158 158 158 159 163 176 175 155 151 153 151 160 179 168 166 177 162 153 168 158 170 170 159 178 176 175 187 165 155 176 191 202 202 200 212 213 192 174 178 169 167 152 131 142 153 150 153 158 159 160 162 155 166 197 219 223 228 228 248 268 287 278 255 183 108 111 105 86 97 67 5 295 89 112 97 96 131 143 113 103 117 121 64 18 348 333
165 162 163 161 162 180 175 156 157 164 168 169 165 174 177 168 171 182 154 156 171 167 182 191 180 196 197 194 189 173 156 158 181 212 193 178 179 166 161 157 162 162 153 151 160 165 164 160 162 160 169 169 178 199 211 209 223 238 257 270 264 262 234 176 122 125 121 109 99 75 36 335 320 62 144 147 144 154 159 142 149 146 123 100 343 325 326
166 164 161 161 168 178 171 166 169 177 172 165 165 178 176 165 167 167 185 185 173 187 188 193 196 183 185 201 186 180 185 168 159 179 191 151 153 162 170 164 159 153 149 154 159 166 174 164 167 168 176 179 190 204 208 214 218 227 241 256 271 255 225 142 149 138 104 111 149 179 205 233 275 249 204 237 172 171 163 157 168 163 191 214 252 252 209
165 159 157 159 167 175 180 177 185 189 176 159 171 178 173 157 161 176 175 193 188 158 163 178 189 194 172 177 208 203 190 182 154 148 155 156 151 147 147 149 149 149 147 143 147 160 181 177 170 174 175 190 204 205 211 213 218 222 236 244 226 213 196 168 171 161 190 314 316 296 264 260 240 221 236 2 130 183 183 171 185 196 214 223 202 214 189
165 166 172 168 170 179 183 181 192 186 172 165 160 164 163 159 166 168 173 172 171 182 194 193 191 198 204 189 185 199 178 167 156 152 134 151 147 147 148 156 162 175 163 153 157 168 172 183 190 184 189 199 200 207 209 215 224 227 211 202 200 183 158 157 144 78 127 177 181 158 194 241 271 355 15 135 160 172 185 201 211 215 217 211 200 191 174
165 164 167 167 171 184 192 201 197 184 177 170 161 156 164 168 166 167 163 167 170 187 181 161 189 199 190 200 185 185 165 138 117 115 118 131 141 152 156 160 164 174 172 160 155 158 173 187 188 193 197 198 203 206 213 218 225 220 209 203 195 204 196 208 224 216 208 169 137 113 44 40 59 37 294 227 203 191 222 234 231 234 232 206 193 180 179